Regional Weather Roundup
Issued by NWS Charleston, SC

Current Version | Previous Version | Graphics & Text | Print | Product List | Glossary On
Versions: 1 2 3 4 5 6 7 8 9 10 11 12 13 14 15 16 17 18 19 20 21 22 23 24 25 26 27 28 29 30 31 32 33 34 35 36 37 38 39 40 41 42 43 44 45 46 47 48 49 50
000
ASUS42 KCHS 271525
RWRCHS

REGIONAL WEATHER ROUNDUP
NATIONAL WEATHER SERVICE CHARLESTON SC
1000 AM EST SAT DEC 27 2014

NOTE: "FAIR" INDICATES FEW OR NO CLOUDS BELOW 12,000 FEET WITH NO
SIGNIFICANT WEATHER AND/OR OBSTRUCTIONS TO VISIBILITY.

NOT ALL STATIONS ARE QUALITY CONTROLLED BY THE NATIONAL
WEATHER SERVICE. USE DATA WITH CAUTION...ESPECIALLY
DEWPOINT OBSERVATIONS.

SCZ027-030-031-034>040-042>050-271600-
...SOUTHEAST SOUTH CAROLINA...

CITY           SKY/WX    TMP DP  RH WIND       PRES   REMARKS
N CHARLESTON   MOSUNNY   55  46  71 NE3       30.36R
WATERFRONT PRK   N/A     54 N/A N/A N6          N/A
MOUNT PLEASANT FAIR      57  48  72 CALM      30.36R
PINOPOLIS      NOT AVBL
MONCKS CORNER  FAIR      57  45  62 CALM      30.36S
SUMMERVILLE    FAIR      55  48  76 CALM      30.36S
BEAUFORT MCAS  MOSUNNY   54  47  77 NE5       30.35R
BEAUFORT ARPT  FAIR      54  50  87 NE5       30.34S
HILTON HEAD IS SUNNY     54  52  94 N5        30.36R
WALTERBORO     SUNNY     57  43  58 CALM      30.36S
ALLENDALE      FAIR      54  46  76 CALM      30.35S

...SOUTHERN MIDLANDS AND PEE DEE...

CITY           SKY/WX    TMP DP  RH WIND       PRES   REMARKS
GEORGETOWN     NOT AVBL
KINGSTREE      NOT AVBL
ORANGEBURG     SUNNY     51  42  71 CALM      30.36R
BARNWELL       FAIR      54  45  71 CALM      30.36S
AIKEN          FAIR      54  41  62 SE3       30.38R
MANNING        FAIR      54  45  71 CALM      30.36S
COLUMBIA       MOSUNNY   45  39  79 CALM      30.35S
SUMTER         SUNNY     51  41  67 VRB1      30.34S
FLORENCE       SUNNY     50  41  71 CALM      30.36R
MYRTLE BEACH   SUNNY     54  46  76 NE7       30.38R
N MYRTLE BEACH SUNNY     55  45  68 NE3       30.37R

$$

GAZ063-065-086>088-099>101-113>116-118-119-134>141-150-271600-
...SOUTHEAST GEORGIA...

CITY           SKY/WX    TMP DP  RH WIND       PRES   REMARKS
SAVANNAH ARPT  MOSUNNY   53  47  79 CALM      30.35R
HUNTER AAF     SUNNY     55  49  82 VRB2      30.32R
FORT STEWART   SUNNY     52  47  84 N3        30.33R
STATESBORO     SUNNY     55  50  82 CALM      30.35S
SYLVANIA       SUNNY     55  49  82 CALM      30.36R
CLAXTON        FAIR      55  50  82 CALM      30.35S

...CSRA...CENTRAL AND FAR SOUTHEAST GEORGIA...

CITY           SKY/WX    TMP DP  RH WIND       PRES   REMARKS
THOMSON        SUNNY     47  44  87 CALM      30.39S
AUGUSTA-BUSH   SUNNY     45  41  86 CALM      30.36R
AUGUSTA-DANIEL SUNNY     51  42  71 CALM      30.35R
SWAINSBORO     FAIR      59  46  63 E5        30.34F
VIDALIA        SUNNY     55  46  71 E6        30.34F
EASTMAN        FAIR      55  47  73 E5        30.37R
HAZLEHURST     FAIR      56  48  73 E6        30.33S
ALMA           SUNNY     54  46  74 E5        30.33R
WAYCROSS       MOSUNNY   60  52  75 E3        30.33R
JESUP          FAIR      59  54  82 E5        30.34R
BAXLEY         FAIR      57  48  72 NE3       30.33S
BRUNSWICK      MOSUNNY   63  55  77 E8        30.33R
SAINT SIMONS   MOSUNNY   64  56  75 NE9       30.32R

$$

SCZ027-028-034-036>038-045-046-048>050-GAZ119-141-271600-
...LAKE AND SUPPLEMENTAL COASTAL OBSERVATIONS...

STATION/POSITION TIME  TEMP    WIND        PRES    WAVE   SWELL
                       AIR SEA DIR/SP/G            HT/PER HT/PER/DIR
                 (UTC) (F)     (DEG/KT/KT) (MB)    (FT/S) (FT/S/D)
UPR LAKE MARION  NOT AVBL
WINYAH BAY       1500   56      40/  5     1027.0S
LAKE MURRAY      1400   46      CALM  /  1 1027.1S
ACE BASIN NERRS  1500   50        CALM     1027.0S
FORT PULASKI     1500   55 56   10/  5/  8 1027.8R
SAPELO ISLAND    1500   61      20/  6     1027.0R

$$

ANZ835-935-AMZ111-154-330-350-352-354-370-450-454-472-271600-
...C-MAN AND BUOY OBSERVATIONS...

STATION/POSITION TIME  TEMP    WIND        PRES    WAVE   SWELL
                       AIR SEA DIR/SP/G            HT/PER HT/PER/DIR
                 (UTC) (F)     (DEG/KT/KT) (MB)    (FT/S) (FT/S/D)
BUOY 41004       1500   65 74   30/ 10/ 12 1026.8R   2/ 6   2/ 6
BUOY 41008       1500   60 59   50/  8/ 10 1026.3R   2/ 5   2/ 80/ 5
FOLLY BEACH CMAN 1500   54      30/  7/  8 1028.2R
CAPERS NEARSHORE NOT AVBL
FRIPP NEARSHORE  NOT AVBL


STATION/POSITION TIME  TEMP    WIND        PRES    WAVE   SWELL
                       AIR SEA DIR/SP/G            HT/PER HT/PER/DIR
                 (UTC) (F)     (DEG/KT/KT) (MB)    (FT/S) (FT/S/D)
5E ST. MARYS GA  1500      61                N/A     3/ 5
FRYING PAN BUOY  1500   62 69   80/  6/  8 1028.3R   2/13   2/ 90/13
BUOY 41025       1500   57                 1028.3R   2/16
CAPE LOOKOUT NC  1500   55      30/  4/  5 1028.0R
BUOY 41002       1354   69 74   80/  8/ 10 1027.8R   3/17   3/310/17
BUOY 41010       1500   75 76  140/  8/ 10 1025.3R   3/ 9   3/ 90/ 9
ST AUGUSTINE FL  1500   63     350/  8/  8 1026.6R


$$


USA.gov is the U.S. government's official web portal to all federal, state and local government web resources and services.